SCP
3 3 4 4 4 4 4 4 4 4 4 3 3 3 3 2 2 3 4 4 4 4 3 3 3 3 2 2 2 2 1 1 1 1 1 1 1 1 1 1 1 1 1
3 3 3 3 3 3 4 4 4 4 4 3 3 3 3 2 2 3 3 4 4 4 3 3 3 3 3 2 2 2 2 2 1 1 1 1 1 1 1 1 1 1 1
3 3 2 2 2 3 3 3 3 3 3 3 2 2 2 2 2 3 3 3 3 3 3 3 4 4 3 3 3 2 2 2 2 1 1 1 1 1 1 1 1 1 1
3 3 2 2 2 2 2 2 2 2 2 2 2 2 2 2 2 2 2 3 3 3 3 3 3 4 3 3 3 3 3 2 2 2 1 1 1 1 1 1 1 1 1
2 2 2 2 2 2 2 2 2 2 2 2 2 2 2 2 2 2 2 2 3 3 3 3 4 4 3 3 3 3 3 3 2 2 2 2 2 2 2 2 1 1 1
2 2 2 2 2 2 1 1 2 2 2 2 2 2 2 2 2 2 2 3 3 3 3 3 4 4 4 3 3 3 3 3 3 3 2 2 2 2 2 2 1 1 1
2 2 2 1 1 1 1 1 1 1 1 1 1 1 2 2 2 2 3 3 4 3 3 3 4 5 4 3 3 4 5 4 3 3 3 3 3 3 2 2 2 1 1
2 2 2 1 1 1 1 1 1 1 1 1 1 1 1 1 1 2 3 4 4 4 3 3 4 5 5 4 3 4 6 5 3 3 3 3 3 3 2 2 2 2 2
2 2 1 1 1 1 1 1 1 1 1 1 1 1 1 1 1 1 3 4 4 4 4 3 3 4 5 5 4 4 4 4 3 3 3 3 3 3 2 2 2 2 2
2 2 2 1 1 1 1 1 1 1 1 1 1 1 1 1 1 1 2 3 3 4 4 4 3 3 4 5 5 4 3 2 2 2 2 3 2 2 2 2 2 2 2
3 3 2 2 1 1 1 1 1 1 1 1 1 1 1 1 1 1 1 1 2 3 3 4 4 4 4 5 4 3 3 2 2 2 2 2 2 2 2 2 2 2 2
3 3 3 3 2 2 1 1 1 1 1 1 1 1 1 1 1 1 1 1 1 2 3 4 5 5 5 4 3 2 2 2 2 2 2 2 2 2 2 2 2 2 2
4 5 5 5 4 3 1 1 1 1 1 1 1 1 1 1 1 1 1 1 1 2 3 4 5 6 5 4 3 2 1 1 1 1 1 1 1 1 2 2 2 2 2
6 6 7 7 5 4 2 1 1 1 1 1 1 1 1 1 1 1 1 1 1 1 2 3 5 5 4 3 2 1 1 0 0 0 1 1 1 1 1 1 1 1 1
7 7 7 7 6 4 3 2 2 1 1 1 1 1 1 1 1 1 1 1 1 1 1 2 3 4 3 2 1 1 1 0 0 0 0 0 0 0 0 0 0 0 0
7 7 7 7 6 4 4 3 2 2 1 1 1 1 1 1 1 1 1 1 1 1 1 2 2 2 2 2 1 1 1 0 0 0 0 0 0 0 0 0 0 0 0
6 6 6 6 5 4 3 3 3 2 1 1 1 1 1 1 1 1 1 1 1 1 1 1 2 2 2 1 1 1 0 0 0 0 0 0 0 0 0 0 0 0 0
4 4 5 5 4 3 3 3 2 2 1 1 1 1 1 1 1 1 1 1 1 1 1 1 1 1 1 1 1 0 0 0 0 0 0 0 0 0 0 0 0 0 0
3 3 4 4 4 3 3 3 2 2 2 1 1 1 1 1 1 1 1 1 1 1 1 1 1 1 1 0 0 0 0 0 0 0 0 0 0 0 0 0 0 0 0
1 2 3 3 3 3 3 2 2 2 2 2 1 1 1 1 1 0 1 1 1 1 1 1 0 0 0 0 0 0 0 0 0 0 0 0 0 0 0 0 0 0 0
1 1 1 2 2 2 2 2 2 2 3 2 2 1 1 1 0 0 0 0 0 0 1 0 0 0 0 0 0 0 0 0 0 0 0 0 0 0 0 0 0 0 0
1 1 1 1 1 1 1 1 1 2 3 3 2 1 1 0 0 0 0 0 0 0 0 0 0 0 0 0 0 0 0 0 0 0 0 0 0 0 0 0 0 0 0
1 1 1 1 1 1 0 0 0 1 2 2 2 1 1 0 0 0 0 0 0 0 0 0 0 0 0 0 0 0 0 0 0 0 0 0 0 0 0 0 0 0 0
1 1 1 1 1 0 0 0 0 1 1 1 1 1 1 0 0 0 0 0 0 0 0 0 0 0 0 0 0 0 0 0 0 0 0 0 0 0 0 0 0 -0 -0
1 1 0 0 0 0 0 0 0 0 1 1 1 1 1 0 0 0 0 0 0 0 0 0 0 0 0 0 0 0 0 0 0 0 0 0 0 0 0 0 0 0 -0
1 1 0 0 0 1 0 0 0 0 1 1 1 1 0 0 0 0 0 0 0 0 0 0 0 0 0 0 0 0 0 0 0 0 0 0 0 0 0 0 0 0 -0
Wind_Speed
4 4 3 3 4 4 4 5 5 4 3 4 4 5 6 6 5 4 3 12 15 16 17 17 17 17 17 16 16 17 17 17 18 18 19 19 19 19 19 18 18 17 16
2 3 3 3 4 4 4 3 4 3 3 4 5 6 6 6 5 5 4 8 16 18 18 18 18 18 19 18 18 18 18 19 18 18 19 20 20 20 20 19 19 18 18
2 2 3 3 4 4 5 4 5 4 5 6 7 8 7 7 8 7 6 5 7 15 19 19 19 19 20 20 20 19 19 19 19 19 19 20 20 21 21 20 20 19 18
3 3 3 4 4 4 4 4 5 5 5 6 6 6 7 7 9 9 9 8 7 8 13 19 20 20 21 21 21 20 19 19 19 19 19 20 21 21 21 21 21 20 19
3 3 2 2 3 3 3 5 3 3 5 5 6 7 7 8 8 11 10 11 10 9 8 12 21 22 22 23 22 21 20 19 19 19 19 20 21 21 21 22 21 20 20
0 1 2 3 3 3 3 3 4 4 4 5 8 8 6 7 7 9 10 10 10 12 12 11 10 15 22 21 21 21 21 20 19 19 19 20 20 21 21 21 21 21 21
1 1 2 3 3 3 4 5 4 6 5 5 5 6 7 9 9 8 9 9 10 10 10 10 8 8 10 21 21 20 21 20 19 18 18 19 20 20 20 21 21 21 21
1 2 2 2 4 4 5 5 4 4 5 5 5 6 6 6 6 9 8 9 10 8 9 11 8 9 7 7 12 20 20 19 19 18 17 17 18 18 19 20 20 20 20
1 1 1 2 3 4 4 4 4 5 5 5 5 4 4 5 6 6 6 5 6 7 6 5 6 7 8 5 7 14 18 17 16 16 15 15 15 16 17 18 19 20 20
3 3 2 3 3 3 5 5 4 4 5 5 5 4 6 7 6 7 7 7 6 5 6 5 4 3 4 4 4 8 11 11 10 11 11 12 12 14 15 17 19 20 20
5 5 5 3 3 3 5 4 4 5 4 5 5 5 6 6 7 6 8 7 6 4 2 2 1 1 1 2 3 5 7 6 5 5 5 6 8 10 13 16 18 19 20
4 7 6 5 3 3 4 4 4 6 5 6 5 5 6 6 6 6 6 6 6 5 3 1 2 2 3 5 7 9 8 6 5 3 2 2 1 1 3 7 11 13 15
3 4 5 3 3 3 4 5 5 6 6 6 6 5 5 6 6 6 6 6 6 4 2 1 2 3 4 5 7 11 10 9 9 8 7 8 8 9 9 9 8 6 4
3 0 2 3 4 5 5 5 5 5 5 5 7 6 5 6 6 6 6 6 6 4 2 1 2 3 4 6 7 9 8 11 11 11 11 11 12 13 13 13 13 13 13
6 4 2 3 4 5 5 5 5 5 5 5 6 6 5 5 6 6 6 6 5 5 3 3 2 3 4 6 6 6 7 11 12 12 12 13 13 14 14 14 15 14 14
8 8 7 5 5 6 6 6 5 6 5 5 5 6 6 5 5 5 5 5 6 6 3 2 3 5 6 7 7 8 9 13 13 13 13 13 14 14 15 15 15 15 15
8 8 8 7 7 7 7 6 6 6 6 5 5 5 6 6 5 5 5 5 5 5 4 2 3 6 7 9 8 8 8 8 9 14 15 15 15 15 15 15 15 15 15
6 7 8 8 9 9 8 7 7 6 5 5 5 5 5 5 6 5 5 5 5 5 5 7 5 5 7 9 9 9 8 8 8 14 15 16 16 16 15 15 15 14 14
8 7 7 8 9 9 9 8 7 6 5 4 4 4 4 5 6 5 5 4 3 4 6 9 7 5 6 7 9 9 10 8 9 11 14 15 15 16 15 15 14 14 14
10 9 7 7 8 10 10 9 8 6 5 4 3 2 3 4 5 5 4 2 2 5 8 9 9 7 6 7 7 8 8 6 7 8 9 11 14 16 16 15 15 14 13
12 10 9 8 8 9 10 9 8 8 5 4 2 1 2 3 3 3 1 1 5 7 8 9 9 7 7 7 6 5 8 7 6 7 8 7 7 7 8 11 13 14 12
10 10 9 9 9 10 10 10 8 6 4 3 3 3 4 3 3 6 7 7 7 9 9 8 7 8 7 5 4 5 7 8 6 5 6 6 6 6 5 5 8 10 11
10 10 10 9 9 9 10 9 9 6 5 4 5 5 4 5 4 5 8 11 11 11 10 8 9 7 6 5 5 5 5 6 5 6 6 6 6 6 5 6 8 9 10
8 8 9 9 8 9 9 8 9 7 6 6 6 6 6 7 6 7 7 8 8 8 8 7 7 6 5 4 5 6 6 6 6 6 7 6 6 6 6 4 7 8 9
7 8 9 10 9 8 8 8 9 6 7 7 7 8 9 9 10 10 9 10 10 8 10 13 12 11 10 8 5 4 5 5 5 4 4 5 6 5 4 4 5 7 7
8 9 10 10 9 6 6 8 9 6 7 6 6 8 11 12 12 10 9 10 11 9 10 11 9 9 7 7 7 4 2 4 6 4 3 4 6 5 4 3 4 5 4
Wind_Direction
225 244 256 267 268 259 238 227 249 258 254 266 266 259 257 254 248 235 211 195 194 202 207 208 213 219 224 225 222 219 218 217 217 217 218 218 218 217 217 216 214 214 214
230 251 262 264 271 287 299 295 281 275 270 265 264 265 267 269 265 254 237 211 206 207 212 213 214 217 220 223 222 221 220 219 217 217 218 218 218 218 218 218 217 215 213
231 244 257 260 259 267 275 276 274 270 263 256 251 249 251 254 257 254 252 249 225 215 215 217 217 216 218 220 221 221 220 219 218 217 216 217 217 217 217 218 218 217 215
217 224 239 248 250 251 252 253 250 257 260 263 263 258 251 245 245 243 241 239 240 240 221 219 220 218 218 220 221 221 220 219 219 218 216 216 216 216 216 217 218 217 216
221 214 243 250 247 249 250 264 258 239 256 260 261 253 245 245 244 245 240 237 233 230 231 223 219 218 218 220 221 221 220 219 219 219 218 217 216 215 216 217 218 217 217
234 48 316 347 349 316 299 300 311 288 265 259 268 271 258 249 243 240 241 240 233 230 229 231 216 218 220 219 219 220 221 221 220 219 220 219 218 216 216 217 218 217 218
15 26 305 337 317 301 322 322 312 305 296 285 279 275 259 251 244 237 233 234 234 231 229 225 213 206 211 220 221 220 220 222 221 221 221 221 221 219 217 217 218 218 218
192 283 3 333 320 328 307 288 290 288 291 295 296 296 290 278 264 253 230 224 226 226 228 228 217 209 204 192 213 222 226 226 225 224 222 222 223 221 219 219 218 218 218
183 259 309 297 313 303 298 323 311 295 294 296 286 285 294 290 307 298 297 266 230 216 217 221 224 218 207 198 187 207 219 224 227 230 229 227 226 224 222 221 219 218 218
198 204 224 256 278 290 297 293 314 329 308 296 291 279 274 286 293 300 304 306 289 243 218 211 219 217 203 197 179 164 194 210 223 235 240 238 232 228 226 224 223 221 219
201 201 204 213 244 266 278 296 302 288 282 283 288 292 291 287 274 270 283 293 303 296 261 214 195 108 80 97 110 113 136 158 186 213 233 245 242 236 231 228 228 227 224
207 199 194 191 217 251 278 285 281 279 270 270 275 278 278 280 283 276 272 279 282 283 280 239 138 115 89 80 88 100 109 115 119 121 119 110 105 187 223 225 227 229 229
233 197 185 173 221 254 265 269 271 274 276 275 271 267 269 269 270 273 274 274 274 278 291 28 68 89 92 93 99 104 97 98 94 89 86 83 80 77 75 76 78 78 74
298 352 163 196 220 241 259 265 274 275 277 281 281 276 270 269 267 265 262 266 273 268 243 167 69 83 94 98 110 105 99 97 95 91 86 83 80 79 77 77 77 75 72
314 311 271 233 232 240 249 259 262 269 273 275 281 285 282 275 267 261 256 246 242 251 237 170 119 102 105 103 121 108 105 101 99 95 90 87 84 83 81 80 79 76 74
332 322 305 283 260 248 245 247 258 263 269 274 275 275 277 278 276 270 258 248 231 226 228 159 137 138 120 114 107 105 105 103 97 96 93 92 90 86 83 82 80 78 75
333 321 306 292 278 263 252 245 249 262 269 277 286 293 297 296 287 279 265 248 233 213 200 120 108 122 117 115 109 110 111 101 100 99 98 95 92 88 84 82 80 77 75
319 320 313 299 284 275 263 252 252 263 272 280 291 301 306 308 309 294 275 254 232 204 166 144 131 128 121 119 117 112 108 103 101 102 101 98 94 90 86 82 79 77 73
301 305 310 307 298 287 277 267 256 253 260 272 287 300 309 314 313 305 289 264 227 189 151 140 135 126 120 123 118 112 111 111 108 110 102 97 96 92 88 84 80 77 74
286 287 290 297 301 296 283 272 264 253 251 260 273 296 316 322 317 306 287 254 171 139 134 135 135 132 128 125 123 126 125 128 127 121 103 102 99 92 89 87 85 81 76
274 276 280 285 291 291 281 277 267 253 235 233 226 183 49 35 9 346 314 160 142 133 133 133 133 132 134 138 139 143 139 137 128 128 126 125 117 102 92 87 84 82 79
263 266 266 271 277 281 298 302 282 266 245 219 200 160 138 112 80 71 75 87 118 132 134 133 133 138 139 139 138 146 146 145 142 153 140 137 123 106 98 93 98 94 89
254 257 259 259 261 267 268 263 264 262 240 214 193 175 172 137 135 112 93 86 88 102 119 128 135 138 142 152 158 162 162 154 138 151 137 124 116 106 106 116 125 112 102
262 263 264 263 260 265 257 243 243 245 239 217 190 171 151 150 153 139 123 107 101 100 115 121 120 120 129 145 150 148 138 123 121 135 135 126 131 126 124 131 151 135 122
262 262 264 259 254 254 245 232 223 234 227 213 189 169 157 153 154 149 130 117 109 103 100 104 108 112 111 106 111 129 137 134 132 133 132 124 135 131 137 147 168 168 149
264 263 260 258 254 249 227 216 211 231 225 203 182 165 160 151 154 150 139 132 127 127 124 118 115 119 116 106 96 95 117 146 142 134 128 119 146 145 147 158 162 173 180